Location: Jackson Park
(37.2862°N, 79.9123°W)
Time: 02:43:02
(UTC+00:00)

Tiros 1 despin weight - Pass Details

Date: 12 May 2026
Orbit: 554 x 591 km, 48.2° (Epoch: 6 June)

Event Time Altitude Azimuth Distance (km) Brightness Sun altitude
Rises 11:58:09 0° 254° (WSW) 2,743 ? 19.1°
Reaches altitude 10° 12:00:30 10° 261° (W) 1,844 ? 19.6°
Maximum altitude 12:04:31 43° 333° (NNW) 792 ? 20.4°
Drops below altitude 10° 12:08:31 10° 46° (NE) 1,836 ? 21.2°
Sets 12:10:51 0° 53° (NE) 2,731 ? 21.6°
